TVF3231 GVAC-GMAD

Flight info

Callsign TVF3231
Flight time 2h 33m
Altitude 37000
Route PINPO2A PINPO UW11 GUNET N857 BIPET DCT CABOJ/N0458F380 DCT LAY L660 SOLNA UA600 TEKNA
Aircraft B738/M-SDE2E3FGHIRWXY/LB1

Departure

Time 2026-04-25 13:34
Airport Amílcar Cabral International Airport (GVAC)

Arrival

Time 2026-04-25 16:07
Airport Al Massira Airport (GMAD)
Time Latitude Longitude Altitude Speed Heading
2026-04-25 13:16 16.73495 -22.94498 200 ft 0 kts 90°
2026-04-25 13:22 16.73495 -22.94505 200 ft 4 kts 90°
2026-04-25 13:22 16.73496 -22.94533 191 ft 4 kts 95°
2026-04-25 13:22 16.73500 -22.94561 211 ft 4 kts 104°
2026-04-25 13:23 16.73524 -22.94596 208 ft 1 kts 179°
2026-04-25 13:26 16.73518 -22.94596 210 ft 2 kts 179°
2026-04-25 13:26 16.73494 -22.94596 207 ft 5 kts 179°
2026-04-25 13:26 16.73450 -22.94595 209 ft 8 kts 179°
2026-04-25 13:27 16.73387 -22.94595 199 ft 10 kts 179°
2026-04-25 13:27 16.73305 -22.94593 211 ft 13 kts 179°
2026-04-25 13:27 16.73217 -22.94593 199 ft 13 kts 180°
2026-04-25 13:27 16.73130 -22.94594 203 ft 12 kts 185°
2026-04-25 13:28 16.73064 -22.94643 199 ft 12 kts 232°
2026-04-25 13:28 16.73047 -22.94666 199 ft 12 kts 229°
2026-04-25 13:28 16.72903 -22.94692 189 ft 17 kts 179°
2026-04-25 13:28 16.72782 -22.94689 188 ft 17 kts 179°
2026-04-25 13:29 16.72665 -22.94687 186 ft 16 kts 179°
2026-04-25 13:29 16.72552 -22.94686 183 ft 17 kts 179°
2026-04-25 13:29 16.72440 -22.94690 182 ft 15 kts 192°
2026-04-25 13:30 16.72423 -22.94695 182 ft 0 kts 207°
2026-04-25 13:30 16.72407 -22.94718 182 ft 5 kts 262°
2026-04-25 13:30 16.72407 -22.94755 183 ft 5 kts 270°
2026-04-25 13:31 16.72407 -22.94761 183 ft 0 kts 270°
2026-04-25 13:32 16.72407 -22.94819 184 ft 13 kts 270°
2026-04-25 13:32 16.72449 -22.94887 192 ft 11 kts 348°
2026-04-25 13:32 16.72458 -22.94887 190 ft 0 kts
2026-04-25 13:33 16.72596 -22.94886 186 ft 54 kts 360°
2026-04-25 13:33 16.73210 -22.94890 192 ft 121 kts 360°
2026-04-25 13:33 16.73517 -22.94892 195 ft 140 kts 360°
2026-04-25 13:34 16.75037 -22.94939 721 ft 173 kts 358°
2026-04-25 13:34 16.76247 -22.94997 1575 ft 176 kts 358°
2026-04-25 13:34 16.77904 -22.95035 2716 ft 182 kts
2026-04-25 13:34 16.78766 -22.95040 3227 ft 187 kts 359°
2026-04-25 13:35 16.80113 -22.95016 3741 ft 196 kts
2026-04-25 13:35 16.81468 -22.94931 4509 ft 195 kts 359°
2026-04-25 13:35 16.82852 -22.94893 5055 ft 205 kts 357°
2026-04-25 13:35 16.84335 -22.94837 5404 ft 225 kts
2026-04-25 13:36 16.85864 -22.94105 5507 ft 264 kts 35°
2026-04-25 13:36 16.87125 -22.92596 5868 ft 287 kts 52°
2026-04-25 13:36 16.88167 -22.90852 6791 ft 285 kts 56°
2026-04-25 13:36 16.89227 -22.89030 7311 ft 298 kts 55°
2026-04-25 13:37 16.90374 -22.87199 8002 ft 303 kts 53°
2026-04-25 13:37 16.91596 -22.85388 8752 ft 307 kts 51°
2026-04-25 13:37 16.92886 -22.83585 9460 ft 313 kts 50°
2026-04-25 13:37 16.94240 -22.81774 10163 ft 317 kts 50°
2026-04-25 13:38 16.95659 -22.79931 10505 ft 337 kts 49°
2026-04-25 13:38 16.97195 -22.77978 10666 ft 360 kts 49°
2026-04-25 13:38 16.98856 -22.75895 11015 ft 374 kts 48°
2026-04-25 13:38 17.00537 -22.73800 11641 ft 377 kts 48°
2026-04-25 13:39 17.02209 -22.71727 12357 ft 378 kts 48°
2026-04-25 13:39 17.03928 -22.69601 13051 ft 380 kts 47°
2026-04-25 13:39 17.05642 -22.67485 13712 ft 383 kts 47°
2026-04-25 13:39 17.07372 -22.65351 14286 ft 386 kts 47°
2026-04-25 13:40 17.09127 -22.63187 14794 ft 391 kts 48°
2026-04-25 13:40 17.10872 -22.61036 15304 ft 395 kts 48°
2026-04-25 13:40 17.12682 -22.58803 15855 ft 398 kts 48°
2026-04-25 13:40 17.14451 -22.56619 16385 ft 401 kts 48°
2026-04-25 13:41 17.16262 -22.54384 16927 ft 405 kts 48°
2026-04-25 13:41 17.18091 -22.52125 17435 ft 409 kts 49°
2026-04-25 13:41 17.19947 -22.49833 17958 ft 412 kts 49°
2026-04-25 13:41 17.21805 -22.47536 18451 ft 416 kts 49°
2026-04-25 13:42 17.23682 -22.45216 18928 ft 418 kts 48°
2026-04-25 13:42 17.25557 -22.42898 19413 ft 419 kts 48°
2026-04-25 13:42 17.27442 -22.40566 19904 ft 420 kts 47°
2026-04-25 13:42 17.29334 -22.38224 20358 ft 423 kts 47°
2026-04-25 13:43 17.31244 -22.35860 20813 ft 425 kts 47°
2026-04-25 13:43 17.33160 -22.33488 21257 ft 427 kts 47°
2026-04-25 13:43 17.35088 -22.31100 21689 ft 429 kts 46°
2026-04-25 13:43 17.37025 -22.28700 22112 ft 432 kts 46°
2026-04-25 13:44 17.38917 -22.26354 22505 ft 434 kts 46°
2026-04-25 13:44 17.40833 -22.23979 22904 ft 436 kts 46°
2026-04-25 13:44 17.42754 -22.21595 23279 ft 438 kts 46°
2026-04-25 13:44 17.44728 -22.19146 23645 ft 441 kts 45°
2026-04-25 13:45 17.46712 -22.16683 23960 ft 443 kts 45°
2026-04-25 13:45 17.48709 -22.14203 24249 ft 445 kts 45°
2026-04-25 13:45 17.50705 -22.11723 24538 ft 447 kts 45°
2026-04-25 13:45 17.52717 -22.09222 24831 ft 450 kts 45°
2026-04-25 13:46 17.54747 -22.06697 25115 ft 452 kts 45°
2026-04-25 13:46 17.56750 -22.04206 25393 ft 454 kts 45°
2026-04-25 13:46 17.58811 -22.01641 25682 ft 456 kts 45°
2026-04-25 13:46 17.60860 -21.99088 25961 ft 458 kts 45°
2026-04-25 13:47 17.62893 -21.96556 26228 ft 460 kts 45°
2026-04-25 13:47 17.64964 -21.93980 26486 ft 462 kts 44°
2026-04-25 13:47 17.67103 -21.91444 26751 ft 463 kts 42°
2026-04-25 13:47 17.69300 -21.88973 27010 ft 464 kts 41°
2026-04-25 13:48 17.71532 -21.86517 27264 ft 466 kts 41°
2026-04-25 13:48 17.73780 -21.84057 27515 ft 468 kts 40°
2026-04-25 13:48 17.76039 -21.81578 27769 ft 470 kts 41°
2026-04-25 13:48 17.78296 -21.79087 28007 ft 472 kts 41°
2026-04-25 13:49 17.80563 -21.76573 28245 ft 474 kts 41°
2026-04-25 13:49 17.82831 -21.74047 28478 ft 476 kts 41°
2026-04-25 13:49 17.85077 -21.71539 28698 ft 478 kts 41°
2026-04-25 13:49 17.87361 -21.68987 28915 ft 480 kts 41°
2026-04-25 13:50 17.89663 -21.66412 29134 ft 482 kts 41°
2026-04-25 13:50 17.91959 -21.63842 29352 ft 484 kts 41°
2026-04-25 13:50 17.94267 -21.61259 29547 ft 486 kts 41°
2026-04-25 13:50 17.96584 -21.58664 29766 ft 488 kts 40°
2026-04-25 13:51 17.98906 -21.56064 29965 ft 489 kts 40°
2026-04-25 13:51 18.01244 -21.53445 30140 ft 491 kts 40°
2026-04-25 13:51 18.03591 -21.50814 30308 ft 493 kts 40°
2026-04-25 13:51 18.05939 -21.48182 30489 ft 494 kts 40°
2026-04-25 13:52 18.08263 -21.45573 30718 ft 494 kts 41°
2026-04-25 13:52 18.10612 -21.42936 30952 ft 494 kts 41°
2026-04-25 13:52 18.12964 -21.40295 31166 ft 494 kts 41°
2026-04-25 13:52 18.15313 -21.37658 31361 ft 495 kts 41°
2026-04-25 13:53 18.17677 -21.35001 31580 ft 496 kts 41°
2026-04-25 13:53 18.20034 -21.32352 31810 ft 496 kts 41°
2026-04-25 13:53 18.22398 -21.29694 32048 ft 496 kts 41°
2026-04-25 13:53 18.24761 -21.27036 32258 ft 497 kts 41°
2026-04-25 13:54 18.27096 -21.24407 32474 ft 498 kts 41°
2026-04-25 13:54 18.29457 -21.21750 32714 ft 498 kts 41°
2026-04-25 13:54 18.31835 -21.19071 32925 ft 499 kts 41°
2026-04-25 13:54 18.34201 -21.16405 33155 ft 499 kts 41°
2026-04-25 13:55 18.36579 -21.13724 33398 ft 499 kts 41°
2026-04-25 13:55 18.38947 -21.11052 33615 ft 500 kts 41°
2026-04-25 13:55 18.41318 -21.08378 33847 ft 500 kts 41°
2026-04-25 13:55 18.43691 -21.05698 34091 ft 500 kts 41°
2026-04-25 13:56 18.46063 -21.03019 34302 ft 500 kts 41°
2026-04-25 13:56 18.48440 -21.00334 34532 ft 499 kts 41°
2026-04-25 13:56 18.50801 -20.97664 34754 ft 499 kts 41°
2026-04-25 13:56 18.53175 -20.94980 34968 ft 499 kts 41°
2026-04-25 13:57 18.55537 -20.92308 35183 ft 499 kts 41°
2026-04-25 13:57 18.57107 -20.90530 35335 ft 498 kts 41°
2026-04-25 13:57 18.60235 -20.86989 35600 ft 498 kts 41°
2026-04-25 13:57 18.62596 -20.84315 35814 ft 498 kts 41°
2026-04-25 13:58 18.64954 -20.81643 36013 ft 498 kts 41°
2026-04-25 13:58 18.67309 -20.78972 36221 ft 497 kts 41°
2026-04-25 13:58 18.69670 -20.76295 36424 ft 497 kts 41°
2026-04-25 13:58 18.72025 -20.73622 36617 ft 497 kts 41°
2026-04-25 13:59 18.74383 -20.70945 36834 ft 496 kts 41°
2026-04-25 13:59 18.76730 -20.68279 36987 ft 496 kts 41°
2026-04-25 13:59 18.79089 -20.65600 36978 ft 499 kts 41°
2026-04-25 14:00 18.82225 -20.62037 36994 ft 498 kts 41°
2026-04-25 14:00 18.88472 -20.54924 36989 ft 494 kts 41°
2026-04-25 14:01 18.93138 -20.49609 36986 ft 491 kts 41°
2026-04-25 14:01 18.97776 -20.44322 36987 ft 490 kts 41°
2026-04-25 14:02 19.02404 -20.39042 36990 ft 489 kts 41°
2026-04-25 14:02 19.07033 -20.33758 36989 ft 490 kts 41°
2026-04-25 14:03 19.11679 -20.28449 36994 ft 491 kts 41°
2026-04-25 14:03 19.16299 -20.23163 36994 ft 493 kts 41°
2026-04-25 14:04 19.20973 -20.17811 36986 ft 495 kts 41°
2026-04-25 14:04 19.25662 -20.12437 36994 ft 497 kts 41°
2026-04-25 14:05 19.30365 -20.07041 36995 ft 499 kts 41°
2026-04-25 14:05 19.35046 -20.01666 36990 ft 500 kts 41°
2026-04-25 14:06 19.39769 -19.96236 36983 ft 501 kts 41°
2026-04-25 14:06 19.44489 -19.90806 36980 ft 501 kts 41°
2026-04-25 14:07 19.49189 -19.85394 36985 ft 500 kts 41°
2026-04-25 14:07 19.53901 -19.79961 36981 ft 499 kts 41°
2026-04-25 14:08 19.58656 -19.74615 36962 ft 494 kts 36°
2026-04-25 14:08 19.64176 -19.70522 36988 ft 479 kts 22°
2026-04-25 14:09 19.70003 -19.67115 36983 ft 478 kts 21°
2026-04-25 14:09 19.75845 -19.63696 36986 ft 479 kts 21°
2026-04-25 14:10 19.81654 -19.60241 36981 ft 479 kts 22°
2026-04-25 14:10 19.87434 -19.56773 36984 ft 480 kts 22°
2026-04-25 14:11 19.93305 -19.53242 36984 ft 481 kts 22°
2026-04-25 14:11 19.99096 -19.49759 36990 ft 482 kts 22°
2026-04-25 14:12 20.04945 -19.46239 36986 ft 484 kts 22°
2026-04-25 14:12 20.10821 -19.42700 36982 ft 485 kts 22°
2026-04-25 14:13 20.16689 -19.39163 36988 ft 486 kts 22°
2026-04-25 14:13 20.22579 -19.35609 36987 ft 486 kts 22°
2026-04-25 14:14 20.28480 -19.32046 36990 ft 487 kts 21°
2026-04-25 14:14 20.34341 -19.28503 36988 ft 487 kts 21°
2026-04-25 14:15 20.39293 -19.25507 36986 ft 487 kts 21°
2026-04-25 14:15 20.45147 -19.21963 36984 ft 487 kts 21°
2026-04-25 14:16 20.51064 -19.18378 36984 ft 486 kts 21°
2026-04-25 14:16 20.56912 -19.14831 36988 ft 486 kts 21°
2026-04-25 14:17 20.62787 -19.11265 36986 ft 486 kts 21°
2026-04-25 14:17 20.68670 -19.07691 36987 ft 485 kts 21°
2026-04-25 14:18 20.74549 -19.04116 36991 ft 485 kts 21°
2026-04-25 14:18 20.80373 -19.00572 36991 ft 485 kts 21°
2026-04-25 14:19 20.86248 -18.96993 36994 ft 485 kts 21°
2026-04-25 14:19 20.92112 -18.93417 36994 ft 485 kts 21°
2026-04-25 14:20 20.97987 -18.89832 36986 ft 485 kts 21°
2026-04-25 14:20 21.03845 -18.86254 36998 ft 485 kts 21°
2026-04-25 14:21 21.09674 -18.82690 36992 ft 485 kts 21°
2026-04-25 14:21 21.15537 -18.79101 36991 ft 486 kts 21°
2026-04-25 14:22 21.21418 -18.75499 36992 ft 486 kts 21°
2026-04-25 14:22 21.27294 -18.71896 36993 ft 487 kts 21°
2026-04-25 14:23 21.33180 -18.68283 36993 ft 487 kts 21°
2026-04-25 14:23 21.39062 -18.64672 36994 ft 488 kts 21°
2026-04-25 14:24 21.44929 -18.61066 36992 ft 488 kts 21°
2026-04-25 14:24 21.50833 -18.57433 36996 ft 489 kts 21°
2026-04-25 14:25 21.56731 -18.53799 36999 ft 489 kts 21°
2026-04-25 14:25 21.62608 -18.50175 36993 ft 489 kts 21°
2026-04-25 14:26 21.68506 -18.46534 36999 ft 489 kts 20°
2026-04-25 14:26 21.74403 -18.42891 36999 ft 489 kts 20°
2026-04-25 14:27 21.80299 -18.39245 36999 ft 488 kts 20°
2026-04-25 14:27 21.86192 -18.35597 37001 ft 488 kts 20°
2026-04-25 14:28 21.92080 -18.31949 37000 ft 487 kts 20°
2026-04-25 14:28 21.97954 -18.28305 36999 ft 487 kts 20°
2026-04-25 14:29 22.03796 -18.24679 37001 ft 487 kts 20°
2026-04-25 14:29 22.09666 -18.21032 37005 ft 486 kts 20°
2026-04-25 14:30 22.15532 -18.17383 37004 ft 486 kts 20°
2026-04-25 14:30 22.24327 -18.11906 37001 ft 486 kts 20°
2026-04-25 14:31 22.30177 -18.08260 36999 ft 486 kts 20°
2026-04-25 14:31 22.36003 -18.04624 37003 ft 485 kts 20°
2026-04-25 14:32 22.41855 -18.00968 36999 ft 485 kts 20°
2026-04-25 14:32 22.47701 -17.97312 37004 ft 485 kts 20°
2026-04-25 14:33 22.53550 -17.93651 37002 ft 485 kts 20°
2026-04-25 14:33 22.59409 -17.89980 37004 ft 486 kts 20°
2026-04-25 14:34 22.65261 -17.86310 37005 ft 486 kts 20°
2026-04-25 14:34 22.71112 -17.82637 37014 ft 486 kts 20°
2026-04-25 14:35 22.76957 -17.78963 37008 ft 486 kts 19°
2026-04-25 14:35 22.82778 -17.75301 37007 ft 486 kts 19°
2026-04-25 14:36 22.88629 -17.71617 37011 ft 486 kts 19°
2026-04-25 14:36 22.94493 -17.67921 37006 ft 486 kts 19°
2026-04-25 14:37 23.00355 -17.64222 37005 ft 486 kts 19°
2026-04-25 14:37 23.06215 -17.60521 37007 ft 487 kts 19°
2026-04-25 14:38 23.12071 -17.56818 37018 ft 487 kts 19°
2026-04-25 14:38 23.17884 -17.53139 37012 ft 487 kts 19°
2026-04-25 14:39 23.23747 -17.49425 37014 ft 487 kts 19°
2026-04-25 14:39 23.29606 -17.45709 37014 ft 487 kts 19°
2026-04-25 14:40 23.35452 -17.41998 37013 ft 487 kts 19°
2026-04-25 14:40 23.41303 -17.38279 37014 ft 486 kts 19°
2026-04-25 14:41 23.47152 -17.34559 37013 ft 486 kts 19°
2026-04-25 14:41 23.53001 -17.30834 37024 ft 486 kts 19°
2026-04-25 14:42 23.56876 -17.28364 37023 ft 486 kts 19°
2026-04-25 14:42 23.64666 -17.23393 37034 ft 486 kts 19°
2026-04-25 14:43 23.70508 -17.19661 37022 ft 486 kts 19°
2026-04-25 14:43 23.76338 -17.15933 37025 ft 486 kts 19°
2026-04-25 14:44 23.82178 -17.12195 37020 ft 486 kts 19°
2026-04-25 14:44 23.88019 -17.08452 37022 ft 486 kts 19°
2026-04-25 14:45 23.93841 -17.04717 37024 ft 486 kts 19°
2026-04-25 14:45 23.99641 -17.00993 37024 ft 486 kts 19°
2026-04-25 14:46 24.05503 -16.97224 37026 ft 486 kts 19°
2026-04-25 14:46 24.11302 -16.93492 37025 ft 486 kts 19°
2026-04-25 14:47 24.15208 -16.90976 37023 ft 486 kts 19°
2026-04-25 14:47 24.22971 -16.85970 37027 ft 486 kts 19°
2026-04-25 14:48 24.28796 -16.82209 37026 ft 486 kts 19°
2026-04-25 14:48 24.34590 -16.78464 37031 ft 486 kts 19°
2026-04-25 14:49 24.40422 -16.74691 37027 ft 486 kts 19°
2026-04-25 14:49 24.46238 -16.70923 37028 ft 486 kts 19°
2026-04-25 14:50 24.52064 -16.67146 37028 ft 485 kts 19°
2026-04-25 14:50 24.57896 -16.63360 37028 ft 485 kts 19°
2026-04-25 14:51 24.63682 -16.59600 37030 ft 485 kts 19°
2026-04-25 14:51 24.69488 -16.55822 37030 ft 485 kts 19°
2026-04-25 14:52 24.75286 -16.52046 37032 ft 485 kts 20°
2026-04-25 14:52 24.79131 -16.49539 37030 ft 484 kts 20°
2026-04-25 14:53 24.86886 -16.44478 37024 ft 484 kts 20°
2026-04-25 14:53 24.92641 -16.40716 37032 ft 484 kts 20°
2026-04-25 14:54 24.98380 -16.36799 37022 ft 493 kts 27°
2026-04-25 14:54 25.01005 -16.34311 37040 ft 504 kts 36°
2026-04-25 14:54 25.03324 -16.31342 37034 ft 514 kts 44°
2026-04-25 14:55 25.07575 -16.24969 37033 ft 516 kts 46°
2026-04-25 14:55 25.11775 -16.18534 37029 ft 515 kts 46°
2026-04-25 14:56 25.16011 -16.12157 37028 ft 514 kts 45°
2026-04-25 14:56 25.20241 -16.05862 37031 ft 513 kts 45°
2026-04-25 14:57 25.24507 -15.99523 37032 ft 512 kts 45°
2026-04-25 14:57 25.28040 -15.94263 37034 ft 512 kts 45°
2026-04-25 14:58 25.32281 -15.87933 37036 ft 511 kts 45°
2026-04-25 14:58 25.36514 -15.81606 37032 ft 511 kts 45°
2026-04-25 14:59 25.40730 -15.75295 37028 ft 510 kts 45°
2026-04-25 14:59 25.44949 -15.68973 37029 ft 510 kts 45°
2026-04-25 15:00 25.49168 -15.62642 37027 ft 510 kts 45°
2026-04-25 15:00 25.53343 -15.56368 37030 ft 510 kts 45°
2026-04-25 15:01 25.57548 -15.50041 37028 ft 509 kts 45°
2026-04-25 15:01 25.61742 -15.43721 37028 ft 509 kts 45°
2026-04-25 15:02 25.65944 -15.37382 37030 ft 509 kts 46°
2026-04-25 15:02 25.70140 -15.31042 37030 ft 509 kts 46°
2026-04-25 15:03 25.74325 -15.24710 37023 ft 509 kts 46°
2026-04-25 15:03 25.78502 -15.18383 37019 ft 509 kts 46°
2026-04-25 15:04 25.82658 -15.12078 37029 ft 508 kts 46°
2026-04-25 15:04 25.86832 -15.05736 37022 ft 508 kts 46°
2026-04-25 15:05 25.90999 -14.99399 37033 ft 508 kts 46°
2026-04-25 15:06 25.97241 -14.89887 37028 ft 508 kts 46°
2026-04-25 15:06 26.01409 -14.83524 37023 ft 508 kts 46°
2026-04-25 15:07 26.05563 -14.77174 37028 ft 508 kts 46°
2026-04-25 15:07 26.09715 -14.70818 37026 ft 507 kts 46°
2026-04-25 15:08 26.13834 -14.64506 37023 ft 507 kts 46°
2026-04-25 15:08 26.18144 -14.58258 37025 ft 504 kts 43°
2026-04-25 15:09 26.22520 -14.52237 37024 ft 503 kts 43°
2026-04-25 15:09 26.29101 -14.43111 37021 ft 503 kts 44°
2026-04-25 15:10 26.33449 -14.37006 37023 ft 502 kts 44°
2026-04-25 15:11 26.39926 -14.27876 37024 ft 502 kts 44°
2026-04-25 15:11 26.44261 -14.21760 37025 ft 501 kts 44°
2026-04-25 15:12 26.50741 -14.12606 37026 ft 501 kts 45°
2026-04-25 15:12 26.54327 -14.07532 37023 ft 500 kts 45°
2026-04-25 15:13 26.61517 -13.97342 37023 ft 500 kts 45°
2026-04-25 15:14 26.65812 -13.91242 37017 ft 499 kts 45°
2026-04-25 15:14 26.70078 -13.85176 37018 ft 499 kts 45°
2026-04-25 15:15 26.74367 -13.79069 37013 ft 499 kts 45°
2026-04-25 15:15 26.78661 -13.72947 37006 ft 499 kts 45°
2026-04-25 15:16 26.82939 -13.66839 36999 ft 498 kts 45°
2026-04-25 15:16 26.89353 -13.57666 36997 ft 498 kts 45°
2026-04-25 15:17 26.95731 -13.48526 36988 ft 498 kts 46°
2026-04-25 15:18 26.99994 -13.42406 36985 ft 498 kts 46°
2026-04-25 15:18 27.06394 -13.33200 36977 ft 498 kts 46°
2026-04-25 15:19 27.09241 -13.29099 36966 ft 498 kts 46°
2026-04-25 15:19 27.14963 -13.20919 36968 ft 495 kts 43°
2026-04-25 15:20 27.19600 -13.15300 36977 ft 492 kts 39°
2026-04-25 15:20 27.24375 -13.09811 36969 ft 492 kts 39°
2026-04-25 15:21 27.29158 -13.04236 36968 ft 492 kts 40°
2026-04-25 15:21 27.33875 -12.98655 36963 ft 492 kts 40°
2026-04-25 15:22 27.38586 -12.93052 36963 ft 492 kts 40°
2026-04-25 15:22 27.43291 -12.87452 36961 ft 492 kts 41°
2026-04-25 15:23 27.48000 -12.81845 36961 ft 492 kts 41°
2026-04-25 15:23 27.52705 -12.76236 36960 ft 492 kts 41°
2026-04-25 15:24 27.57375 -12.70660 36965 ft 492 kts 41°
2026-04-25 15:24 27.60512 -12.66909 36958 ft 492 kts 41°
2026-04-25 15:25 27.66754 -12.59439 36957 ft 491 kts 41°
2026-04-25 15:25 27.71490 -12.53887 36956 ft 490 kts 40°
2026-04-25 15:26 27.76260 -12.48380 36956 ft 490 kts 40°
2026-04-25 15:26 27.81018 -12.42872 36961 ft 490 kts 41°
2026-04-25 15:27 27.85766 -12.37350 36961 ft 489 kts 41°
2026-04-25 15:28 27.92866 -12.29065 36964 ft 488 kts 41°
2026-04-25 15:28 27.97599 -12.23533 36956 ft 488 kts 41°
2026-04-25 15:29 28.02286 -12.18049 36948 ft 487 kts 42°
2026-04-25 15:29 28.06986 -12.12541 36950 ft 486 kts 42°
2026-04-25 15:30 28.10891 -12.07960 36962 ft 485 kts 42°
2026-04-25 15:30 28.16364 -12.01530 36956 ft 484 kts 42°
2026-04-25 15:31 28.21035 -11.96035 36958 ft 483 kts 42°
2026-04-25 15:31 28.25698 -11.90542 36948 ft 482 kts 43°
2026-04-25 15:32 28.30350 -11.85055 36949 ft 481 kts 43°
2026-04-25 15:32 28.34955 -11.79615 36945 ft 481 kts 43°
2026-04-25 15:33 28.39607 -11.74114 36680 ft 485 kts 43°
2026-04-25 15:33 28.41931 -11.71362 36437 ft 482 kts 43°
2026-04-25 15:33 28.44249 -11.68616 36186 ft 479 kts 43°
2026-04-25 15:33 28.46553 -11.65882 35943 ft 478 kts 43°
2026-04-25 15:34 28.48858 -11.63148 35708 ft 478 kts 44°
2026-04-25 15:34 28.51157 -11.60418 35465 ft 477 kts 44°
2026-04-25 15:34 28.53456 -11.57688 35229 ft 476 kts 44°
2026-04-25 15:34 28.54197 -11.56808 35158 ft 476 kts 44°
2026-04-25 15:35 28.60286 -11.49564 34534 ft 475 kts 44°
2026-04-25 15:35 28.62570 -11.46842 34303 ft 474 kts 44°
2026-04-25 15:35 28.64846 -11.44129 34075 ft 474 kts 45°
2026-04-25 15:36 28.69396 -11.38700 33578 ft 474 kts 45°
2026-04-25 15:36 28.71671 -11.35983 33313 ft 474 kts 45°
2026-04-25 15:36 28.73947 -11.33262 33061 ft 475 kts 45°
2026-04-25 15:37 28.76231 -11.30531 32804 ft 475 kts 45°
2026-04-25 15:37 28.78510 -11.27804 32555 ft 476 kts 45°
2026-04-25 15:37 28.80798 -11.25063 32310 ft 476 kts 45°
2026-04-25 15:37 28.83084 -11.22324 32053 ft 476 kts 45°
2026-04-25 15:38 28.85364 -11.19589 31805 ft 476 kts 45°
2026-04-25 15:38 28.87646 -11.16851 31557 ft 475 kts 45°
2026-04-25 15:38 28.89157 -11.15036 31393 ft 475 kts 45°
2026-04-25 15:38 28.91422 -11.12314 31148 ft 470 kts 45°
2026-04-25 15:39 28.93665 -11.09617 30900 ft 467 kts 45°
2026-04-25 15:39 28.95900 -11.06928 30659 ft 464 kts 45°
2026-04-25 15:39 28.98111 -11.04267 30416 ft 460 kts 45°
2026-04-25 15:39 29.00300 -11.01629 30173 ft 457 kts 46°
2026-04-25 15:40 29.02485 -10.98995 29926 ft 455 kts 46°
2026-04-25 15:40 29.03926 -10.97257 29737 ft 454 kts 46°
2026-04-25 15:40 29.06836 -10.93746 29375 ft 455 kts 46°
2026-04-25 15:40 29.08989 -10.91146 29093 ft 454 kts 46°
2026-04-25 15:41 29.11183 -10.88493 28823 ft 450 kts 46°
2026-04-25 15:41 29.13328 -10.85900 28549 ft 448 kts 46°
2026-04-25 15:41 29.15432 -10.83353 28289 ft 445 kts 46°
2026-04-25 15:41 29.17555 -10.80781 27899 ft 441 kts 46°
2026-04-25 15:42 29.19666 -10.78223 27635 ft 431 kts 46°
2026-04-25 15:42 29.21690 -10.75769 27375 ft 430 kts 46°
2026-04-25 15:42 29.23765 -10.73253 27136 ft 434 kts 46°
2026-04-25 15:42 29.25842 -10.70731 26881 ft 436 kts 46°
2026-04-25 15:43 29.27921 -10.68206 26635 ft 436 kts 46°
2026-04-25 15:43 29.30002 -10.65676 26399 ft 435 kts 46°
2026-04-25 15:43 29.32068 -10.63163 26138 ft 435 kts 46°
2026-04-25 15:43 29.34144 -10.60636 25897 ft 435 kts 46°
2026-04-25 15:44 29.36216 -10.58113 25647 ft 431 kts 46°
2026-04-25 15:44 29.38271 -10.55608 25404 ft 429 kts 46°
2026-04-25 15:44 29.40314 -10.53117 25153 ft 426 kts 46°
2026-04-25 15:44 29.42338 -10.50648 24917 ft 425 kts 46°
2026-04-25 15:45 29.44356 -10.48183 24692 ft 423 kts 46°
2026-04-25 15:45 29.46361 -10.45734 24459 ft 421 kts 46°
2026-04-25 15:45 29.48330 -10.43326 24221 ft 416 kts 46°
2026-04-25 15:45 29.49659 -10.41701 24071 ft 413 kts 46°
2026-04-25 15:46 29.52257 -10.38520 23763 ft 411 kts 46°
2026-04-25 15:46 29.54209 -10.36130 23537 ft 410 kts 46°
2026-04-25 15:46 29.56160 -10.33739 23284 ft 409 kts 46°
2026-04-25 15:46 29.58108 -10.31351 23012 ft 408 kts 46°
2026-04-25 15:47 29.60046 -10.28973 22751 ft 408 kts 46°
2026-04-25 15:47 29.61987 -10.26590 22487 ft 407 kts 46°
2026-04-25 15:47 29.63913 -10.24223 22230 ft 406 kts 46°
2026-04-25 15:47 29.65850 -10.21843 21952 ft 404 kts 46°
2026-04-25 15:48 29.67762 -10.19491 21530 ft 400 kts 46°
2026-04-25 15:48 29.69633 -10.17188 21077 ft 397 kts 46°
2026-04-25 15:48 29.71514 -10.14871 20628 ft 394 kts 46°
2026-04-25 15:48 29.73399 -10.12547 20182 ft 392 kts 46°
2026-04-25 15:49 29.75257 -10.10257 19721 ft 389 kts 46°
2026-04-25 15:49 29.77098 -10.07985 19276 ft 387 kts 46°
2026-04-25 15:49 29.78914 -10.05744 18964 ft 383 kts 46°
2026-04-25 15:49 29.80733 -10.03498 18380 ft 386 kts 46°
2026-04-25 15:50 29.82561 -10.01228 17852 ft 385 kts 47°
2026-04-25 15:50 29.84359 -9.98942 17372 ft 383 kts 47°
2026-04-25 15:50 29.86131 -9.96664 16905 ft 380 kts 47°
2026-04-25 15:50 29.87886 -9.94404 16463 ft 377 kts 48°
2026-04-25 15:51 29.89626 -9.92164 16016 ft 374 kts 48°
2026-04-25 15:51 29.90777 -9.90683 15726 ft 373 kts 48°
2026-04-25 15:51 29.93104 -9.87692 15137 ft 369 kts 48°
2026-04-25 15:51 29.94815 -9.85494 14689 ft 367 kts 48°
2026-04-25 15:52 29.96496 -9.83333 14256 ft 365 kts 49°
2026-04-25 15:52 29.98187 -9.81159 13813 ft 363 kts 49°
2026-04-25 15:52 29.99872 -9.78990 13334 ft 362 kts 49°
2026-04-25 15:52 30.01569 -9.76807 12861 ft 359 kts 49°
2026-04-25 15:53 30.03184 -9.74689 12420 ft 355 kts 53°
2026-04-25 15:53 30.04595 -9.72347 12102 ft 346 kts 62°
2026-04-25 15:53 30.05666 -9.69886 11728 ft 340 kts 69°
2026-04-25 15:53 30.06535 -9.67361 11384 ft 336 kts 71°
2026-04-25 15:54 30.07320 -9.64836 11009 ft 333 kts 73°
2026-04-25 15:54 30.08052 -9.62345 10693 ft 328 kts 73°
2026-04-25 15:54 30.08766 -9.59899 10530 ft 312 kts 73°
2026-04-25 15:54 30.09448 -9.57568 10394 ft 294 kts 73°
2026-04-25 15:55 30.10083 -9.55412 10288 ft 279 kts 73°
2026-04-25 15:55 30.10706 -9.53310 10129 ft 273 kts 73°
2026-04-25 15:55 30.11320 -9.51244 9844 ft 273 kts 73°
2026-04-25 15:55 30.11942 -9.49164 9567 ft 271 kts 73°
2026-04-25 15:56 30.12557 -9.47104 9241 ft 272 kts 73°
2026-04-25 15:56 30.13173 -9.45051 8979 ft 270 kts 73°
2026-04-25 15:56 30.13787 -9.43007 8677 ft 269 kts 73°
2026-04-25 15:56 30.14397 -9.40963 8375 ft 268 kts 73°
2026-04-25 15:57 30.14992 -9.38946 8082 ft 268 kts 73°
2026-04-25 15:57 30.15590 -9.36871 7820 ft 267 kts 73°
2026-04-25 15:57 30.16161 -9.34855 7506 ft 269 kts 73°
2026-04-25 15:57 30.16729 -9.32793 7226 ft 268 kts 73°
2026-04-25 15:58 30.17284 -9.30744 6952 ft 267 kts 73°
2026-04-25 15:58 30.17824 -9.28711 6790 ft 258 kts 73°
2026-04-25 15:58 30.18329 -9.26783 6638 ft 246 kts 73°
2026-04-25 15:58 30.18814 -9.24897 6294 ft 244 kts 73°
2026-04-25 15:59 30.19287 -9.23009 5882 ft 244 kts 73°
2026-04-25 15:59 30.19756 -9.21111 5525 ft 246 kts 73°
2026-04-25 15:59 30.20221 -9.19212 5292 ft 244 kts 73°
2026-04-25 15:59 30.20677 -9.17329 5052 ft 243 kts 73°
2026-04-25 16:00 30.21131 -9.15441 4770 ft 244 kts 73°
2026-04-25 16:00 30.21278 -9.14821 4687 ft 244 kts 73°
2026-04-25 16:00 30.22188 -9.11712 4173 ft 246 kts 51°
2026-04-25 16:00 30.23527 -9.10615 3928 ft 237 kts 11°
2026-04-25 16:01 30.25102 -9.10733 3821 ft 223 kts 333°
2026-04-25 16:01 30.26436 -9.11596 3652 ft 219 kts 327°
2026-04-25 16:01 30.27744 -9.12489 3354 ft 222 kts 327°
2026-04-25 16:01 30.29067 -9.13398 3155 ft 221 kts 326°
2026-04-25 16:02 30.30390 -9.14282 2959 ft 218 kts 326°
2026-04-25 16:02 30.31489 -9.15432 2676 ft 213 kts 291°
2026-04-25 16:02 30.31704 -9.17063 2626 ft 201 kts 267°
2026-04-25 16:02 30.31715 -9.18687 2508 ft 204 kts 271°
2026-04-25 16:03 30.31772 -9.20266 2489 ft 190 kts 270°
2026-04-25 16:03 30.31816 -9.21732 2485 ft 175 kts 269°
2026-04-25 16:03 30.31847 -9.23075 2480 ft 161 kts 268°
2026-04-25 16:03 30.31868 -9.24346 2476 ft 153 kts 268°
2026-04-25 16:04 30.31898 -9.25560 2503 ft 152 kts 269°
2026-04-25 16:04 30.31924 -9.26832 2357 ft 162 kts 268°
2026-04-25 16:04 30.31957 -9.28167 2140 ft 167 kts 270°
2026-04-25 16:04 30.32000 -9.29497 1909 ft 161 kts 267°
2026-04-25 16:05 30.32014 -9.30327 1821 ft 150 kts 268°
2026-04-25 16:05 30.32058 -9.31844 1526 ft 140 kts 265°
2026-04-25 16:05 30.32042 -9.34073 1210 ft 136 kts 268°
2026-04-25 16:06 30.32098 -9.35181 1030 ft 141 kts 272°
2026-04-25 16:06 30.32169 -9.36323 858 ft 146 kts 268°
2026-04-25 16:06 30.32187 -9.37537 653 ft 149 kts 265°
2026-04-25 16:06 30.32217 -9.38717 446 ft 148 kts 265°
2026-04-25 16:07 30.32243 -9.39905 240 ft 145 kts 266°
2026-04-25 16:07 30.32249 -9.40295 231 ft 137 kts 267°
2026-04-25 16:07 30.32266 -9.41449 230 ft 37 kts 271°
2026-04-25 16:07 30.32274 -9.41686 230 ft 27 kts 272°
2026-04-25 16:08 30.32315 -9.41890 231 ft 24 kts 295°
2026-04-25 16:08 30.32393 -9.42040 230 ft 21 kts 303°
2026-04-25 16:08 30.32441 -9.42131 230 ft 8 kts 300°
2026-04-25 16:08 30.32462 -9.42158 231 ft 4 kts 324°
2026-04-25 16:09 30.32486 -9.42178 230 ft 4 kts 325°
2026-04-25 16:09 30.32521 -9.42192 230 ft 7 kts 353°
2026-04-25 16:09 30.32582 -9.42197 230 ft 11 kts 359°
2026-04-25 16:09 30.32671 -9.42195 230 ft 14 kts
2026-04-25 16:10 30.32772 -9.42188 230 ft 14 kts
2026-04-25 16:10 30.32833 -9.42115 230 ft 14 kts 85°
2026-04-25 16:10 30.32833 -9.42008 230 ft 13 kts 92°
2026-04-25 16:10 30.32830 -9.41904 230 ft 13 kts 92°
2026-04-25 16:11 30.32827 -9.41804 230 ft 12 kts 92°
2026-04-25 16:11 30.32824 -9.41706 230 ft 12 kts 92°
2026-04-25 16:11 30.32821 -9.41610 232 ft 12 kts 92°
2026-04-25 16:11 30.32820 -9.41517 230 ft 11 kts 90°
2026-04-25 16:12 30.32820 -9.41427 230 ft 11 kts 90°
2026-04-25 16:12 30.32817 -9.41339 230 ft 11 kts 92°
2026-04-25 16:12 30.32814 -9.41253 230 ft 10 kts 92°
2026-04-25 16:12 30.32813 -9.41224 230 ft 10 kts 92°
2026-04-25 16:13 30.32811 -9.41137 230 ft 1 kts 91°
2026-04-25 16:13 30.32811 -9.41128 230 ft 1 kts 91°
2026-04-25 16:13 30.32811 -9.41119 230 ft 1 kts 84°
2026-04-25 16:13 30.32820 -9.41104 230 ft 3 kts 41°
2026-04-25 16:14 30.32849 -9.41097 230 ft 6 kts
2026-04-25 16:14 30.32884 -9.41095 230 ft 2 kts